Location: Bergnerzell
(49.1816°N, 10.2565°E)
Time: 01:45:41
(UTC+00:00)

DELTA 2 R/B (1) - Pass Details

Date: 23 May 2024
Orbit: 788 x 801 km, 39.6° (Epoch: 19 June)

Event Time Altitude Azimuth Distance (km) Brightness Sun altitude
Exits shadow 00:26:21 30° 169° (S) 1,394 4.4 -18.4°
Drops below altitude 10° 00:30:51 10° 115° (ESE) 2,350 5.9 -18.2°
Sets 00:33:34 0° 105° (ESE) 3,278 6.8 -18.1°
